Location: Emory University Observatory
(33.7903°N, 84.3267°W)
Time: 01:14:01
(UTC-05:00)

OTV 5 (USA 277) - Pass Details

Date: 09 October 2017
Orbit: 404 x 417 km, 43.0° (Epoch: 07 September)

Event Time Altitude Azimuth Distance (km) Brightness Sun altitude
Rises 20:31:08 0° 249° (WSW) 2,344 ? -17.5°
Reaches altitude 10° 20:33:16 10° 253° (WSW) 1,484 ? -18.0°
Maximum altitude 20:36:34 57° 334° (NNW) 494 ? -18.7°
Enters shadow 20:37:20 43° 25° (NNE) 590 ? -18.8°
